LAGEOS 2

Satellite information

Favourite Embed

Satellite Type and Status

PAYLOADIN ORBIT

Key statistics

Satellite LAGEOS 2 at a glance.

Uptime

12006

Days in orbit

Revolutions

≈ 6.5

Per day

Orbit

MEO

Medium Earth Orbit

Inclination

52.6

Latest

Satellite identification and parameters

Extended collection of information and parameters for LAGEOS 2.

Object identification

Identified? True

Debris? False

Object name: LAGEOS 2

International designator: 1992-070B

Object number (NORAD): 22195

Object ID (CCSDS): 22195

Country: ITALY (IT)

Current information (Y/N): Y

RCS size: MEDIUM

Orbital parameters

Period: 222.465 minutes

Inclination: 52.6497 deg

SMA: 12161.884 km

Apoapsis: 5951.219 km

Periapsis: 5616.279 km

RAAN: 93.048 deg

Eccentricy: 0.01377005

Argument of periapsis: 58.5299 deg

Mean anomaly: 178.3211 deg

Mean motion: 6.47293836 rev/day

Mean motion (dot): -0.00000009 rev/day2

B* drag term: 0.0 1/REarth

Two-line elements (TLE)

Creation date: Aug. 30, 2025, 3:38 a.m.

Reference frame: TEME

Reference center: EARTH

Epoch: Aug. 26, 2025, 5:32 a.m. UTC

TLE line 0: 0 LAGEOS 2

TLE line 1: 1 22195U 92070B 25238.23094120 -.00000009 00000-0 00000-0 0 9998

TLE line 2: 2 22195 52.6497 93.0480 0137700 58.5299 178.3211 6.47293836776320

Live tracking on map

Real-time ground track for satellite LAGEOS 2.

In-orbit conjunctions

There are no conjunctions computed for LAGEOS 2, at the moment. Check back to stay up to date, as we update our databases every day.

Go to all conjunctions

Associated space launch

STS-52 was a Space Transportation System (NASA Space Shuttle) mission using orbiter Columbia, and was launched on 22 October 1992.

LAGEOS 2 was lifted into orbit during the mission ‘Space Shuttle Columbia / OV-102 | STS-52’, on board a Space Shuttle space rocket.

The launch took place on Oct. 22, 1992, 5:09 p.m. from Launch Complex 39B.

For more information about the launch, click the button.

Launch to space Space Shuttle Columbia / OV-102 | STS-52
Space Shuttle Columbia / OV-102 | STS-52

Agency: N/A

Status: Launch Successful

Launch date: Oct. 22, 1992, 5:09 p.m. UTC

Rocket: Space Shuttle

Launch pad: Launch Complex 39B

Location: Kennedy Space Center, FL, USA

...

Latest news about this satellite

There are no fresh news available about this satellite. Check back as we update our databases every day.


Newsletter sign-up

Weekly statistics, charts and insights to help you stay on top of the space industry.